| time (UTC) | temp C | wind direction | speed KPH | gust KPH | rain 1hr cm | rain 24hr cm | rain mn cm | humidity % | barometer mb |
| 20260504175104 | 22 | 221 | 12.9 | 24.1 | 0.00 | 0.00 | 0.00 | 40 | 1009.9 |
| 20260504174603 | 22 | 240 | 9.7 | 20.9 | 0.00 | 0.00 | 0.00 | 37 | 1009.9 |
| 20260504174103 | 21 | 226 | 9.7 | 20.9 | 0.00 | 0.00 | 0.00 | 39 | 1009.9 |
| 20260504173603 | 21 | 217 | 12.9 | 29.0 | 0.00 | 0.00 | 0.00 | 39 | 1009.9 |
| 20260504173103 | 22 | 222 | 8.0 | 24.1 | 0.00 | 0.00 | 0.00 | 40 | 1009.9 |
| 20260504172604 | 21 | 224 | 9.7 | 27.4 | 0.00 | 0.00 | 0.00 | 39 | 1009.9 |
| 20260504172103 | 21 | 228 | 11.3 | 25.7 | 0.00 | 0.00 | 0.00 | 41 | 1010.1 |
| 20260504171103 | 21 | 218 | 8.0 | 25.7 | 0.00 | 0.00 | 0.00 | 40 | 1010.1 |
| 20260504170604 | 22 | 226 | 16.1 | 25.7 | 0.00 | 0.00 | 0.00 | 37 | 1010.2 |
| 20260504170104 | 21 | 219 | 8.0 | 29.0 | 0.00 | 0.00 | 0.00 | 40 | 1010.3 |
| 20260504151104 | 20 | 270 | 9.7 | 27.4 | 0.00 | 0.00 | 0.00 | 36 | 1011.8 |
| 20260504150603 | 20 | 231 | 11.3 | 32.2 | 0.00 | 0.00 | 0.00 | 35 | 1011.8 |
| 20260504150103 | 20 | 234 | 11.3 | 27.4 | 0.00 | 0.00 | 0.00 | 37 | 1011.9 |
| 20260504141103 | 18 | 240 | 9.7 | 22.5 | 0.00 | 0.00 | 0.00 | 37 | 1012.2 |
| 20260504140603 | 18 | 240 | 11.3 | 27.4 | 0.00 | 0.00 | 0.00 | 37 | 1012.2 |
| 20260504140103 | 18 | 233 | 9.7 | 27.4 | 0.00 | 0.00 | 0.00 | 39 | 1012.3 |
| 20260504130604 | 16 | 243 | 9.7 | 24.1 | 0.00 | 0.00 | 0.00 | 46 | 1012.8 |
| 20260504130104 | 16 | 230 | 8.0 | 22.5 | 0.00 | 0.00 | 0.00 | 46 | 1012.8 |
| 20260504110603 | 10 | 239 | 6.4 | 19.3 | 0.00 | 0.00 | 0.00 | 57 | 1012.9 |
| 20260504110104 | 10 | 229 | 8.0 | 19.3 | 0.00 | 0.00 | 0.00 | 57 | 1012.9 |
| 20260504100604 | 8 | 236 | 4.8 | 20.9 | 0.00 | 0.00 | 0.00 | 60 | 1012.5 |
| 20260504100103 | 8 | 227 | 6.4 | 16.1 | 0.00 | 0.00 | 0.00 | 60 | 1012.6 |
| 20260504081603 | 10 | 217 | 3.2 | 9.7 | 0.00 | 0.00 | 0.00 | 54 | 1011.9 |
| 20260504081104 | 10 | 225 | 4.8 | 9.7 | 0.00 | 0.00 | 0.00 | 54 | 1011.9 |
| 20260504080604 | 10 | 207 | 3.2 | 12.9 | 0.00 | 0.00 | 0.00 | 54 | 1011.9 |
| 20260504080104 | 10 | 224 | 4.8 | 8.0 | 0.00 | 0.00 | 0.00 | 54 | 1011.9 |
| 20260504070103 | 9 | 220 | 4.8 | 11.3 | 0.00 | 0.00 | 0.00 | 55 | 1011.6 |
| 20260504050603 | 8 | 225 | 6.4 | 11.3 | 0.00 | 0.00 | 0.00 | 57 | 1011.4 |
| 20260504050103 | 8 | 223 | 4.8 | 9.7 | 0.00 | 0.00 | 0.00 | 57 | 1011.4 |
| 20260504045604 | 8 | 221 | 4.8 | 9.7 | 0.00 | 0.00 | 0.00 | 57 | 1011.4 |
| 20260504044603 | 8 | 228 | 4.8 | 11.3 | 0.00 | 0.00 | 0.00 | 57 | 1011.3 |
| 20260504044103 | 8 | 220 | 3.2 | 8.0 | 0.00 | 0.00 | 0.00 | 57 | 1011.3 |
| 20260504043603 | 8 | 227 | 4.8 | 9.7 | 0.00 | 0.00 | 0.00 | 57 | 1011.2 |
| 20260504043104 | 8 | 224 | 3.2 | 9.7 | 0.00 | 0.00 | 0.00 | 56 | 1011.2 |
| 20260504042103 | 7 | 217 | 1.6 | 8.0 | 0.00 | 0.00 | 0.00 | 57 | 1011.2 |
| 20260504041603 | 7 | 222 | 4.8 | 8.0 | 0.00 | 0.00 | 0.00 | 57 | 1011.2 |
| 20260504041105 | 7 | 227 | 3.2 | 9.7 | 0.00 | 0.00 | 0.00 | 57 | 1011.2 |
| 20260504040603 | 7 | 219 | 4.8 | 9.7 | 0.00 | 0.00 | 0.00 | 58 | 1011.2 |
| 20260504040103 | 7 | 222 | 3.2 | 8.0 | 0.00 | 0.00 | 0.00 | 58 | 1011.2 |
| 20260504035603 | 7 | 213 | 1.6 | 4.8 | 0.00 | 0.00 | 0.00 | 57 | 1011.1 |
| 20260504035104 | 7 | 213 | 3.2 | 4.8 | 0.00 | 0.00 | 0.00 | 57 | 1011.1 |
| 20260504034604 | 7 | 230 | 1.6 | 4.8 | 0.00 | 0.00 | 0.00 | 57 | 1011.1 |
| 20260504034103 | 7 | 235 | 1.6 | 4.8 | 0.00 | 0.00 | 0.00 | 58 | 1011.1 |
| 20260504033603 | 7 | 218 | 1.6 | 4.8 | 0.00 | 0.00 | 0.00 | 58 | 1011.1 |
| 20260504033104 | 7 | 216 | 1.6 | 4.8 | 0.00 | 0.00 | 0.00 | 58 | 1011.1 |
| 20260504032603 | 7 | 216 | 1.6 | 3.2 | 0.00 | 0.00 | 0.00 | 57 | 1011.1 |
| 20260504032103 | 7 | 216 | 1.6 | 3.2 | 0.00 | 0.00 | 0.00 | 56 | 1011.1 |
| 20260504031604 | 7 | 216 | 0.0 | 0.0 | 0.00 | 0.00 | 0.00 | 57 | 1011.1 |
| 20260504031104 | 7 | 216 | 0.0 | 3.2 | 0.00 | 0.00 | 0.00 | 58 | 1011.1 |
| 20260504030603 | 7 | 216 | 3.2 | 8.0 | 0.00 | 0.00 | 0.00 | 59 | 1011.1 |
| 20260504030104 | 7 | 214 | 1.6 | 3.2 | 0.00 | 0.00 | 0.00 | 59 | 1011.1 |
| 20260504025103 | 7 | 214 | 3.2 | 4.8 | 0.00 | 0.00 | 0.00 | 59 | 1011.0 |
| 20260504024603 | 7 | 214 | 3.2 | 4.8 | 0.00 | 0.00 | 0.00 | 59 | 1011.0 |
| 20260504024104 | 7 | 214 | 3.2 | 4.8 | 0.00 | 0.00 | 0.00 | 58 | 1010.9 |
| 20260504023604 | 8 | 214 | 1.6 | 4.8 | 0.00 | 0.00 | 0.00 | 58 | 1010.9 |
| 20260504023103 | 8 | 214 | 1.6 | 4.8 | 0.00 | 0.00 | 0.00 | 58 | 1010.9 |
| 20260504022604 | 8 | 214 | 1.6 | 4.8 | 0.00 | 0.00 | 0.00 | 58 | 1010.9 |
| 20260504022104 | 8 | 214 | 0.0 | 3.2 | 0.00 | 0.00 | 0.00 | 59 | 1010.9 |
| 20260504021103 | 8 | 214 | 0.0 | 0.0 | 0.00 | 0.00 | 0.00 | 58 | 1010.9 |
| 20260504020603 | 8 | 214 | 0.0 | 0.0 | 0.00 | 0.00 | 0.00 | 58 | 1010.8 |
| 20260504020103 | 8 | 214 | 0.0 | 0.0 | 0.00 | 0.00 | 0.00 | 58 | 1010.8 |
| 20260504015604 | 8 | 214 | 0.0 | 0.0 | 0.00 | 0.00 | 0.00 | 58 | 1010.8 |
| 20260504015104 | 8 | 214 | 0.0 | 0.0 | 0.00 | 0.00 | 0.00 | 58 | 1010.8 |
| 20260504014103 | 8 | 214 | 0.0 | 0.0 | 0.00 | 0.00 | 0.00 | 58 | 1010.8 |
| 20260504013603 | 8 | 214 | 0.0 | 0.0 | 0.00 | 0.00 | 0.00 | 57 | 1010.8 |
| 20260504013103 | 8 | 214 | 1.6 | 3.2 | 0.00 | 0.00 | 0.00 | 57 | 1010.5 |
| 20260504012603 | 8 | 214 | 1.6 | 3.2 | 0.00 | 0.00 | 0.00 | 57 | 1010.5 |
| 20260504012103 | 9 | 214 | 1.6 | 3.2 | 0.00 | 0.00 | 0.00 | 56 | 1010.5 |
| 20260504011604 | 9 | 214 | 0.0 | 1.6 | 0.00 | 0.00 | 0.00 | 55 | 1010.5 |
| 20260504011104 | 9 | 214 | 0.0 | 1.6 | 0.00 | 0.00 | 0.00 | 54 | 1010.5 |
| 20260504010603 | 10 | 214 | 0.0 | 3.2 | 0.00 | 0.00 | 0.00 | 53 | 1010.4 |
| 20260504005603 | 10 | 214 | 1.6 | 3.2 | 0.00 | 0.00 | 0.00 | 54 | 1010.4 |
| 20260504005104 | 10 | 214 | 0.0 | 0.0 | 0.00 | 0.00 | 0.00 | 55 | 1010.4 |
| 20260504004604 | 10 | 214 | 0.0 | 3.2 | 0.00 | 0.00 | 0.00 | 55 | 1010.2 |
| 20260504004104 | 10 | 214 | 1.6 | 3.2 | 0.00 | 0.00 | 0.00 | 54 | 1010.2 |
| 20260504003603 | 11 | 214 | 0.0 | 1.6 | 0.00 | 0.00 | 0.00 | 52 | 1010.2 |
| 20260504003103 | 11 | 214 | 0.0 | 1.6 | 0.00 | 0.00 | 0.00 | 52 | 1010.1 |
| 20260504002603 | 11 | 214 | 0.0 | 0.0 | 0.00 | 0.00 | 0.00 | 52 | 1009.9 |
| 20260504002103 | 11 | 214 | 0.0 | 3.2 | 0.00 | 0.00 | 0.00 | 51 | 1009.9 |
| 20260504001604 | 11 | 214 | 0.0 | 3.2 | 0.00 | 0.00 | 0.00 | 50 | 1009.6 |
| 20260504001104 | 12 | 214 | 1.6 | 4.8 | 0.00 | 0.00 | 0.00 | 49 | 1009.6 |
| 20260503235603 | 12 | 222 | 3.2 | 4.8 | 0.00 | 0.00 | 0.00 | 42 | 1009.6 |
| 20260503235104 | 12 | 223 | 1.6 | 4.8 | 0.00 | 0.00 | 0.00 | 40 | 1009.6 |
| 20260503234103 | 13 | 249 | 1.6 | 11.3 | 0.00 | 0.00 | 0.00 | 39 | 1009.5 |
| 20260503233603 | 13 | 292 | 1.6 | 4.8 | 0.00 | 0.00 | 0.00 | 39 | 1009.5 |
| 20260503233103 | 13 | 258 | 3.2 | 4.8 | 0.00 | 0.00 | 0.00 | 38 | 1009.4 |
| 20260503232604 | 13 | 287 | 3.2 | 11.3 | 0.00 | 0.00 | 0.00 | 37 | 1009.2 |
| 20260503232104 | 13 | 275 | 4.8 | 11.3 | 0.00 | 0.00 | 0.00 | 35 | 1009.2 |
| 20260503231603 | 13 | 269 | 4.8 | 12.9 | 0.00 | 0.00 | 0.00 | 35 | 1009.2 |
| 20260503231103 | 13 | 270 | 4.8 | 16.1 | 0.00 | 0.00 | 0.00 | 35 | 1009.1 |
| 20260503230603 | 13 | 310 | 3.2 | 12.9 | 0.00 | 0.00 | 0.00 | 35 | 1009.1 |
| 20260503230103 | 14 | 294 | 4.8 | 12.9 | 0.00 | 0.00 | 0.00 | 35 | 1009.1 |
| 20260503225603 | 14 | 282 | 9.7 | 19.3 | 0.00 | 0.00 | 0.00 | 33 | 1009.0 |
| 20260503225104 | 14 | 282 | 8.0 | 19.3 | 0.00 | 0.00 | 0.00 | 33 | 1009.0 |
| 20260503224603 | 14 | 289 | 6.4 | 19.3 | 0.00 | 0.00 | 0.00 | 34 | 1009.0 |
| 20260503224103 | 14 | 300 | 6.4 | 22.5 | 0.00 | 0.00 | 0.00 | 33 | 1009.0 |
| 20260503223603 | 14 | 311 | 4.8 | 14.5 | 0.00 | 0.00 | 0.00 | 35 | 1009.0 |
| 20260503223104 | 14 | 294 | 6.4 | 19.3 | 0.00 | 0.00 | 0.00 | 33 | 1009.0 |
| 20260503222604 | 14 | 300 | 12.9 | 24.1 | 0.00 | 0.00 | 0.00 | 32 | 1009.0 |
| 20260503222103 | 14 | 296 | 14.5 | 29.0 | 0.00 | 0.00 | 0.00 | 32 | 1009.0 |
| 20260503221103 | 14 | 289 | 8.0 | 24.1 | 0.00 | 0.00 | 0.00 | 34 | 1008.9 |
| 20260503220604 | 14 | 302 | 8.0 | 25.7 | 0.00 | 0.00 | 0.00 | 34 | 1008.9 |
| 20260503220103 | 14 | 306 | 8.0 | 19.3 | 0.00 | 0.00 | 0.00 | 36 | 1008.9 |
| 20260503214604 | 15 | 279 | 16.1 | 27.4 | 0.00 | 0.00 | 0.00 | 31 | 1008.9 |
| 20260503214103 | 15 | 285 | 11.3 | 24.1 | 0.00 | 0.00 | 0.00 | 32 | 1008.9 |
| 20260503213103 | 15 | 305 | 12.9 | 24.1 | 0.00 | 0.00 | 0.00 | 35 | 1008.8 |
| 20260503212604 | 15 | 291 | 3.2 | 16.1 | 0.00 | 0.00 | 0.00 | 36 | 1008.8 |
| 20260503212104 | 15 | 283 | 8.0 | 19.3 | 0.00 | 0.00 | 0.00 | 37 | 1008.8 |
| 20260503211604 | 15 | 288 | 8.0 | 19.3 | 0.00 | 0.00 | 0.00 | 34 | 1008.8 |
| 20260503211103 | 15 | 290 | 9.7 | 19.3 | 0.00 | 0.00 | 0.00 | 35 | 1008.7 |
| 20260503210603 | 15 | 263 | 6.4 | 24.1 | 0.00 | 0.00 | 0.00 | 35 | 1008.7 |
| 20260503210103 | 15 | 305 | 12.9 | 25.7 | 0.00 | 0.00 | 0.00 | 34 | 1008.7 |
| 20260503205603 | 15 | 307 | 12.9 | 27.4 | 0.00 | 0.00 | 0.00 | 34 | 1008.7 |
| 20260503205104 | 15 | 285 | 4.8 | 19.3 | 0.00 | 0.00 | 0.00 | 37 | 1008.7 |
| 20260503204603 | 15 | 305 | 14.5 | 32.2 | 0.00 | 0.00 | 0.00 | 33 | 1008.7 |
| 20260503204103 | 15 | 325 | 11.3 | 22.5 | 0.00 | 0.00 | 0.00 | 36 | 1008.6 |
| 20260503203604 | 15 | 312 | 11.3 | 22.5 | 0.00 | 0.00 | 0.00 | 37 | 1008.6 |
| 20260503203104 | 15 | 289 | 12.9 | 27.4 | 0.00 | 0.00 | 0.00 | 36 | 1008.8 |
| 20260503202604 | 15 | 285 | 6.4 | 24.1 | 0.00 | 0.00 | 0.00 | 37 | 1008.8 |
| 20260503202103 | 15 | 300 | 8.0 | 20.9 | 0.00 | 0.00 | 0.00 | 38 | 1008.8 |
| 20260503201603 | 15 | 322 | 9.7 | 19.3 | 0.00 | 0.00 | 0.00 | 37 | 1008.8 |
| 20260503201104 | 15 | 296 | 11.3 | 20.9 | 0.00 | 0.00 | 0.00 | 36 | 1008.8 |
| 20260503200604 | 15 | 332 | 9.7 | 24.1 | 0.00 | 0.00 | 0.00 | 38 | 1008.9 |
| 20260503200104 | 15 | 321 | 6.4 | 19.3 | 0.00 | 0.00 | 0.00 | 41 | 1008.9 |
| 20260503195603 | 15 | 308 | 8.0 | 14.5 | 0.00 | 0.00 | 0.00 | 43 | 1009.0 |
| 20260503195104 | 14 | 334 | 8.0 | 19.3 | 0.00 | 0.00 | 0.00 | 40 | 1009.0 |
| 20260503194604 | 14 | 342 | 8.0 | 20.9 | 0.00 | 0.00 | 0.00 | 41 | 1009.1 |
| 20260503194104 | 14 | 347 | 8.0 | 19.3 | 0.00 | 0.00 | 0.00 | 41 | 1009.1 |
| 20260503193603 | 15 | 324 | 4.8 | 19.3 | 0.00 | 0.00 | 0.00 | 39 | 1009.1 |
| 20260503192603 | 15 | 294 | 4.8 | 19.3 | 0.00 | 0.00 | 0.00 | 40 | 1009.1 |
| 20260503192104 | 14 | 313 | 14.5 | 29.0 | 0.00 | 0.00 | 0.00 | 36 | 1009.2 |
| 20260503191603 | 15 | 297 | 9.7 | 27.4 | 0.00 | 0.00 | 0.00 | 39 | 1009.1 |
| 20260503191103 | 14 | 265 | 4.8 | 22.5 | 0.00 | 0.00 | 0.00 | 41 | 1009.1 |
| 20260503185603 | 14 | 333 | 8.0 | 25.7 | 0.00 | 0.00 | 0.00 | 39 | 1009.3 |
| 20260503185104 | 14 | 323 | 8.0 | 22.5 | 0.00 | 0.00 | 0.00 | 42 | 1009.4 |
| 20260503184604 | 13 | 301 | 11.3 | 22.5 | 0.00 | 0.00 | 0.00 | 40 | 1009.4 |
| 20260503184103 | 14 | 320 | 8.0 | 20.9 | 0.00 | 0.00 | 0.00 | 40 | 1009.4 |
| 20260503183603 | 13 | 298 | 9.7 | 32.2 | 0.00 | 0.00 | 0.00 | 39 | 1009.4 |
| 20260503183103 | 14 | 305 | 9.7 | 24.1 | 0.00 | 0.00 | 0.00 | 41 | 1009.4 |
| 20260503182604 | 14 | 309 | 9.7 | 24.1 | 0.00 | 0.00 | 0.00 | 38 | 1009.4 |
| 20260503182104 | 13 | 297 | 11.3 | 32.2 | 0.00 | 0.00 | 0.00 | 42 | 1009.1 |
| 20260503181603 | 13 | 302 | 12.9 | 22.5 | 0.00 | 0.00 | 0.00 | 38 | 1009.1 |
| 20260503181103 | 14 | 291 | 8.0 | 32.2 | 0.00 | 0.00 | 0.00 | 42 | 1009.1 |
| 20260503180603 | 14 | 314 | 11.3 | 22.5 | 0.00 | 0.00 | 0.00 | 40 | 1009.1 |
| 20260503180103 | 15 | 315 | 11.3 | 20.9 | 0.00 | 0.00 | 0.00 | 36 | 1009.1 |
| 20260503175604 | 15 | 305 | 6.4 | 19.3 | 0.00 | 0.00 | 0.00 | 43 | 1009.1 |